Location: Boston
(42.3580°N, 71.0600°W)
Time: 08:51:05
(UTC-04:00)

YUBILEINY - Visible Passes

Search period start: 19 October 2018 00:00
Search period end: 29 October 2018 00:00
Orbit: 1479 x 1508 km, 82.5° (Epoch: 19 October)

Date Brightness Start Highest point End Pass type
(mag) Time Alt. Az. Time Alt. Az. Time Alt. Az.
19 Oct ? 03:58:02 10° NNE 04:03:54 19° ENE 04:09:44 10° ESE visible
19 Oct ? 05:53:13 10° N 06:02:08 85° E 06:10:59 10° S visible
19 Oct ? 18:54:11 10° S 19:02:58 86° W 19:11:51 10° N visible
19 Oct ? 20:55:23 10° WSW 21:01:11 19° WNW 21:07:03 10° NNW visible
20 Oct ? 05:03:48 10° N 05:12:23 50° ENE 05:20:52 10° SSE visible
20 Oct ? 18:05:07 10° SSE 18:13:33 56° E 18:22:05 10° NNE visible
20 Oct ? 20:03:01 10° SW 20:10:44 34° WNW 20:18:34 10° N visible
21 Oct ? 04:14:51 10° N 04:22:15 29° ENE 04:29:34 10° ESE visible
21 Oct ? 06:10:59 10° NNW 06:19:44 67° W 06:28:25 10° S visible
21 Oct ? 19:12:07 10° SSW 19:20:43 59° WNW 19:29:27 10° N visible
21 Oct ? 21:16:49 10° WNW 21:19:46 12° NW 21:22:44 10° NNW visible
22 Oct ? 03:26:43 10° NNE 03:31:39 16° ENE 03:36:34 10° E visible
22 Oct ? 05:21:20 10° N 05:30:13 74° E 05:39:01 10° SSE visible
22 Oct ? 18:22:20 10° S 18:31:05 82° E 18:39:56 10° N visible
22 Oct ? 20:22:27 10° WSW 20:28:58 23° WNW 20:35:34 10° NNW visible
23 Oct ? 04:32:02 10° N 04:40:21 42° ENE 04:48:35 10° SE visible
23 Oct ? 06:28:57 10° NNW 06:37:09 44° W 06:45:18 10° SSW visible
23 Oct ? 19:30:36 10° SW 19:38:40 40° WNW 19:46:51 10° N visible
24 Oct ? 03:43:14 10° NNE 03:50:06 24° ENE 03:56:53 10° ESE visible
24 Oct ? 05:39:01 10° N 05:47:53 78° W 05:56:40 10° S visible
24 Oct ? 18:40:03 10° SSW 18:48:46 69° W 18:57:36 10° N visible
24 Oct ? 20:43:00 10° W 20:47:27 15° WNW 20:51:57 10° NNW visible
25 Oct ? 02:55:42 10° NNE 02:59:21 13° NE 03:03:00 10° E visible
25 Oct ? 04:49:29 10° N 04:58:17 63° ENE 05:06:59 10° SSE visible
25 Oct ? 19:49:42 10° WSW 19:56:48 27° WNW 20:04:01 10° N visible
26 Oct ? 04:00:19 10° N 04:08:18 36° ENE 04:16:13 10° SE visible
26 Oct ? 05:56:54 10° NNW 06:05:23 53° W 06:13:48 10° SSW visible
26 Oct ? 18:58:17 10° SW 19:06:38 47° WNW 19:15:05 10° N visible
27 Oct ? 03:11:44 10° NNE 03:17:55 20° ENE 03:24:02 10° ESE visible
27 Oct ? 05:07:06 10° N 05:16:01 90° W 05:24:50 10° S visible
27 Oct ? 18:08:03 10° S 18:16:50 81° W 18:25:44 10° N visible
27 Oct ? 20:09:42 10° W 20:15:12 18° WNW 20:20:44 10° NNW visible
28 Oct ? 02:25:48 10° NE 02:27:01 10° NE 02:28:15 10° ENE visible
28 Oct ? 04:17:40 10° N 04:26:18 53° ENE 04:34:51 10° SSE visible
28 Oct ? 06:15:02 10° NNW 06:22:43 35° W 06:30:22 10° SW visible
28 Oct ? 19:17:07 10° SW 19:24:41 32° WNW 19:32:23 10° N visible
